Theta_e
317 317 315 315 316 317 317 318 318 317 316 314 314 314 315 316 318 320 320 325 330 332 328 330 332 333 338 339 337 337 340 342 348 349 350 351 352 350 346 355 353 351 349 348 348
317 317 317 316 315 316 317 318 318 318 316 314 314 314 314 315 318 322 325 325 325 326 328 330 331 330 330 332 335 335 336 337 337 342 348 349 350 348 352 355 355 351 348 348 348
317 316 317 316 316 317 317 318 318 317 316 315 314 314 314 315 320 321 326 328 328 325 325 328 329 331 332 331 334 334 336 336 334 338 346 349 347 344 356 358 353 351 349 347 349
316 316 316 316 316 317 318 318 318 316 315 314 314 314 314 317 323 325 325 328 329 326 328 328 330 333 333 334 334 334 335 336 334 340 347 349 345 350 354 355 350 348 349 348 351
314 316 317 316 316 317 318 317 317 315 314 314 313 314 315 320 319 324 323 323 324 327 327 329 332 332 335 333 333 330 332 334 334 334 337 347 345 349 352 352 349 347 347 351 351
313 313 315 316 316 317 317 317 315 315 314 313 313 314 323 317 320 322 323 324 324 325 328 330 332 331 333 333 332 330 330 331 334 334 334 337 343 347 352 351 349 347 346 345 350
314 313 314 314 315 316 318 317 315 315 313 313 313 318 324 316 320 323 324 320 321 322 324 328 332 334 331 332 330 330 330 330 332 332 332 338 344 352 353 350 350 349 348 349 346
319 315 313 313 315 318 318 315 316 315 313 313 314 321 313 315 317 318 320 320 322 323 322 325 330 331 329 328 329 331 328 330 331 332 332 331 337 352 352 352 352 350 351 351 352
318 319 314 314 315 320 318 316 315 313 312 313 318 318 312 318 321 319 319 319 320 323 323 325 328 329 327 329 328 328 330 331 334 331 332 332 342 342 351 353 353 353 353 342 350
318 319 317 314 314 320 316 314 313 314 313 318 321 319 316 318 321 322 321 320 321 322 324 329 324 327 324 327 331 332 331 331 332 334 342 343 344 344 343 354 353 353 354 341 349
318 319 319 317 315 320 317 316 310 312 320 311 313 316 319 319 321 321 321 320 320 320 322 325 329 330 329 328 330 330 330 330 332 341 344 345 344 342 349 350 351 348 344 344 347
318 318 319 319 316 318 315 315 314 318 317 316 316 316 317 318 318 317 320 320 320 320 325 325 328 329 329 330 331 330 329 328 332 341 344 344 340 339 342 348 350 348 346 339 343
318 319 318 319 317 314 314 316 319 318 314 318 318 318 318 317 317 317 317 317 321 320 324 325 328 329 330 330 330 329 327 327 334 341 340 340 340 337 340 337 342 343 346 342 340
319 318 317 318 318 317 319 320 320 317 318 321 322 320 317 316 317 318 317 317 319 323 323 326 326 329 330 329 328 328 329 327 335 337 344 336 341 335 339 336 337 339 338 340 341
319 318 316 315 317 317 321 323 318 317 328 327 323 321 314 317 318 319 317 321 321 326 325 328 328 329 329 329 327 328 326 326 326 324 333 334 331 331 339 336 339 337 338 339 344
319 319 315 315 316 322 322 322 317 323 331 328 321 318 317 317 318 320 320 321 321 323 324 324 324 326 324 326 326 327 324 319 318 318 322 327 332 335 341 338 342 340 340 345 347
319 320 315 313 320 322 322 317 322 327 325 325 319 316 316 316 318 319 320 321 322 325 325 322 324 323 323 323 323 320 319 321 324 325 324 336 338 334 340 341 343 343 340 348 348
320 319 317 318 323 321 321 319 329 326 326 324 316 314 316 316 317 318 320 319 321 320 318 321 324 322 324 323 323 322 319 321 326 330 334 338 335 335 340 341 340 342 338 349 351
319 317 318 323 323 321 317 323 323 324 326 325 319 317 317 318 318 320 318 319 320 317 322 319 321 321 322 324 322 322 322 319 329 338 339 343 343 342 341 341 339 338 346 352 353
315 317 322 325 323 320 320 324 325 325 326 324 326 319 318 319 319 319 319 320 321 318 318 320 322 321 322 323 321 321 319 324 327 342 346 347 349 345 342 339 338 339 346 350 352
317 322 324 323 321 316 323 324 327 326 325 324 324 324 319 320 317 317 320 321 322 318 317 316 318 320 322 324 328 331 328 328 329 331 340 348 348 340 339 339 337 338 339 347 351
312 321 323 319 317 314 321 324 323 323 323 323 322 322 323 317 318 316 320 319 319 315 318 317 314 318 319 326 328 329 327 331 330 339 336 341 340 337 338 340 338 337 336 341 348
310 314 323 322 320 320 320 322 323 324 323 324 325 324 322 320 323 317 317 322 318 317 317 316 315 317 318 320 330 336 334 331 329 329 339 342 340 339 340 339 338 337 335 342 348
312 327 328 319 314 321 329 330 326 327 327 326 326 324 327 331 327 328 318 320 318 318 335 321 312 316 319 321 329 338 337 330 328 331 332 338 334 339 341 339 338 338 337 345 349
313 324 331 332 331 330 330 332 337 337 328 326 326 325 326 331 333 335 331 323 324 336 319 317 321 326 330 333 335 336 336 334 336 334 333 332 334 333 338 337 336 336 346 350 344
316 324 321 326 328 330 329 334 336 340 332 333 325 331 331 336 334 336 333 331 332 328 323 319 330 331 336 335 337 340 337 338 338 336 335 336 337 333 335 334 336 340 352 348 349
314 316 321 325 329 332 334 337 339 337 337 337 333 331 334 334 332 328 330 329 332 332 325 323 330 333 338 339 334 334 338 337 337 335 334 338 335 340 343 343 337 340 353 351 346
Wind_Speed
17 18 19 19 18 18 17 16 14 14 13 14 14 15 18 20 22 20 7 10 5 8 11 8 6 4 9 5 6 4 2 3 8 5 4 11 5 4 1 9 3 6 6 13 27
17 18 18 19 20 19 17 16 14 14 14 13 13 13 15 19 20 17 22 19 17 16 9 7 5 7 2 2 3 4 4 8 6 8 6 10 6 9 5 7 2 5 15 26 30
19 20 19 20 20 20 18 16 14 14 13 12 12 12 13 14 5 8 8 9 12 15 11 7 6 3 5 3 2 3 5 4 5 8 9 9 7 3 10 2 8 20 17 23 26
20 21 22 20 21 21 19 16 14 12 11 10 9 10 11 5 4 3 8 9 6 5 6 3 5 4 4 5 2 5 7 5 2 5 7 9 6 7 8 6 12 19 21 20 21
21 21 22 23 23 21 19 16 14 10 9 8 6 7 5 2 10 12 16 16 13 6 6 2 3 2 2 6 8 3 6 5 4 3 5 10 8 5 9 8 11 16 18 19 18
24 24 23 23 24 22 20 16 12 8 6 5 4 4 1 5 10 13 13 11 7 6 7 4 4 4 5 4 2 7 7 6 5 5 3 6 4 6 2 14 14 16 9 11 11
27 28 26 27 27 22 18 13 9 6 4 4 3 1 1 14 6 8 12 21 16 14 3 9 5 2 6 8 3 7 6 1 3 3 6 8 2 1 9 16 16 14 7 7 6
30 31 31 32 29 24 17 10 6 4 3 3 2 2 7 8 13 24 29 23 15 14 13 18 8 4 4 5 7 6 4 5 6 1 0 7 2 2 12 17 13 13 13 14 10
30 31 33 34 32 23 13 5 2 1 2 2 1 2 9 9 8 18 20 14 14 13 8 11 5 3 4 2 5 7 2 3 8 3 2 5 4 4 9 12 13 10 12 5 9
31 32 32 34 35 21 7 2 3 3 4 2 2 3 7 4 6 5 11 13 4 4 6 4 5 1 4 5 3 4 6 5 7 4 8 9 4 4 13 13 14 15 12 7 12
32 32 33 34 35 20 3 1 3 2 4 9 6 4 6 10 5 5 7 8 2 6 1 4 4 7 5 6 4 4 4 5 8 3 6 4 3 4 4 10 11 8 6 8 8
32 33 34 34 32 14 2 1 4 1 7 12 11 8 11 4 5 5 4 5 3 4 2 5 6 5 3 2 4 3 5 8 4 3 4 3 3 6 6 2 8 8 7 8 5
33 34 36 36 21 3 2 6 6 4 3 8 6 6 5 10 7 8 8 4 3 3 4 6 5 4 2 6 6 8 5 4 6 3 6 5 4 4 4 4 4 4 3 4 10
33 36 37 35 3 6 5 2 15 13 3 6 4 7 5 6 4 12 13 7 2 9 6 5 6 5 4 7 5 7 12 10 8 5 4 4 3 3 3 3 2 4 1 6 10
34 38 36 25 14 4 4 13 4 2 3 3 3 1 4 9 3 5 10 4 8 5 6 7 1 3 4 11 6 12 5 3 5 5 5 5 4 7 1 4 4 5 2 3 7
38 39 33 12 9 10 8 6 6 5 5 4 5 6 5 1 2 0 5 3 3 4 2 6 3 4 7 9 8 6 2 8 5 4 3 5 4 5 5 6 3 4 3 7 7
41 35 27 14 5 5 13 2 5 3 5 2 4 4 3 5 2 2 5 5 5 4 3 7 7 5 5 5 2 6 6 3 4 5 4 2 0 7 6 6 5 5 4 9 8
42 34 16 17 3 17 5 5 2 3 6 6 2 4 5 4 4 4 4 6 3 5 3 3 6 4 4 7 9 2 7 6 5 4 4 2 4 6 3 3 6 9 8 9 7
38 19 10 4 17 5 5 3 6 5 5 8 4 5 2 4 5 3 8 8 9 8 7 4 6 4 4 4 7 4 2 5 8 3 3 4 7 9 7 6 7 4 8 11 8
29 10 7 3 17 6 5 5 4 4 6 3 1 2 5 4 6 7 6 6 6 9 6 2 3 1 7 5 3 7 7 4 3 5 3 5 6 6 4 6 5 8 8 8 8
8 4 9 12 11 5 4 6 5 5 4 5 6 4 8 5 8 6 9 4 12 8 8 6 4 7 5 1 6 2 2 7 6 4 5 1 6 8 11 7 7 5 4 8 8
7 3 2 14 4 1 3 5 6 6 4 8 5 9 6 8 6 9 12 11 12 10 11 7 5 4 11 5 6 5 4 5 5 4 1 4 7 2 9 8 9 8 5 6 7
3 3 6 5 3 2 5 5 6 10 6 3 5 6 7 7 4 9 11 20 8 11 10 8 2 2 10 7 4 4 1 6 6 4 5 6 6 6 1 6 8 6 4 6 9
2 3 3 3 0 4 3 6 6 6 3 4 7 6 3 2 1 5 7 3 13 11 10 9 4 7 8 7 5 3 1 3 6 4 4 6 7 5 7 7 6 5 3 9 11
1 2 1 2 2 1 3 4 9 7 1 3 6 6 5 3 4 4 5 3 5 5 7 7 7 5 3 1 6 5 5 4 4 5 6 4 8 7 13 11 6 8 8 9 12
1 2 4 2 2 3 2 2 3 9 2 3 5 14 3 3 3 2 3 4 3 7 4 1 2 3 6 6 7 5 3 6 4 4 5 7 6 5 3 9 7 7 11 13 13
3 3 2 3 3 2 3 1 6 9 6 11 12 3 4 5 3 6 10 7 6 4 3 3 6 3 4 3 2 3 4 3 1 3 3 0 6 4 3 7 7 8 13 14 15
Wind_Direction
359 356 353 349 344 337 328 318 312 308 305 306 311 320 323 320 319 313 264 255 280 297 326 329 278 262 204 213 197 144 40 275 182 177 152 167 153 176 150 144 125 210 146 149 147
357 353 350 347 342 337 328 319 309 302 299 299 305 321 327 328 324 292 275 279 274 278 318 356 320 333 324 241 208 143 136 223 192 166 176 172 148 173 134 155 69 109 105 134 146
358 356 348 345 342 335 328 321 310 299 292 292 303 322 327 331 321 253 315 292 252 261 277 299 319 6 338 333 285 263 207 217 171 198 156 150 150 158 119 194 184 155 147 151 153
356 354 351 344 339 336 328 321 310 297 289 285 300 321 323 340 265 271 353 9 320 262 265 307 33 11 331 324 251 314 240 194 229 166 149 152 145 158 171 215 167 157 146 158 162
355 352 348 344 340 334 329 321 311 296 284 278 295 320 323 329 249 263 305 311 325 304 250 114 42 185 324 292 330 191 287 234 225 175 148 138 206 190 200 136 148 148 153 161 172
356 352 347 342 340 334 327 320 311 297 275 266 279 316 17 249 269 283 286 326 315 292 295 134 199 199 275 282 74 282 290 260 189 231 191 152 207 124 136 147 150 159 167 157 173
358 353 351 345 339 333 327 321 308 291 254 245 248 45 283 233 238 259 280 305 299 285 278 268 239 94 359 315 250 264 316 177 222 219 233 115 60 225 161 157 160 159 119 72 108
357 356 356 351 343 336 332 324 302 274 225 214 213 145 246 265 286 269 274 280 284 289 265 269 257 212 176 275 320 335 37 18 297 188 202 129 117 259 165 160 162 154 161 189 124
355 353 351 350 347 340 336 332 324 188 178 173 107 165 265 297 262 249 250 250 282 300 286 282 174 206 24 27 350 6 347 333 321 71 93 75 138 303 181 163 161 152 185 205 134
353 350 348 347 346 339 345 65 112 133 140 137 251 345 271 268 250 258 230 232 240 320 359 61 63 97 45 67 271 319 339 323 292 324 57 93 126 285 217 173 160 173 178 189 176
350 348 345 344 343 335 341 147 28 342 213 201 196 243 289 333 284 245 186 129 133 66 176 355 51 237 186 193 208 290 274 263 277 252 78 41 89 38 65 122 156 185 161 184 201
349 346 342 340 336 323 272 213 205 289 298 232 237 262 274 336 313 288 159 134 126 215 100 13 239 246 258 237 262 258 282 302 308 8 83 113 50 24 36 326 182 192 198 185 201
348 344 339 337 331 347 260 265 285 327 348 289 196 206 208 157 211 262 138 145 165 192 182 192 204 49 258 302 297 284 198 171 210 122 51 104 12 52 1 355 276 300 267 187 188
346 342 339 338 1 341 262 328 341 198 38 274 248 264 158 151 265 213 184 145 222 201 181 238 272 224 235 260 158 290 290 234 143 99 176 68 244 325 314 300 287 297 210 196 219
342 338 335 336 295 236 167 327 141 119 340 188 209 169 145 151 231 206 169 76 181 186 125 234 116 67 268 250 158 237 227 242 119 109 94 351 77 267 313 278 303 313 351 179 165
336 331 330 328 280 257 298 337 139 45 256 328 142 165 136 161 285 44 123 75 161 179 279 226 292 225 228 266 212 258 195 47 61 89 58 266 134 271 214 203 222 258 305 143 127
331 326 313 282 243 164 359 98 43 161 329 210 182 149 147 156 215 151 153 144 162 112 319 338 272 262 197 251 20 75 60 8 1 12 213 339 106 244 208 215 219 254 250 139 146
328 325 307 266 260 252 311 53 178 254 261 297 137 92 159 158 233 190 111 206 248 104 101 148 326 174 185 181 202 121 139 147 196 189 237 278 247 253 160 272 258 252 235 131 139
328 324 294 303 204 171 82 97 216 220 309 349 4 91 314 240 177 155 190 201 202 161 172 155 269 297 235 203 139 188 178 179 106 42 72 288 294 284 238 200 181 140 172 154 152
327 320 280 281 154 135 81 227 240 236 338 354 354 163 201 248 163 168 183 209 210 181 160 204 285 256 302 31 42 160 159 68 16 141 233 300 285 240 277 205 190 128 196 166 157
335 349 346 146 130 53 152 238 275 258 343 352 308 271 242 203 196 196 214 268 195 184 140 142 115 282 19 301 181 93 88 56 109 119 156 225 267 221 223 200 183 159 205 186 161
347 349 60 147 62 45 191 206 248 265 206 255 235 205 241 203 211 205 214 214 183 147 163 201 148 216 239 280 321 104 130 131 121 211 86 126 276 277 226 171 189 196 188 167 150
349 275 152 250 130 255 278 273 262 275 246 225 264 246 217 222 191 200 202 230 157 157 173 174 225 333 332 355 4 62 28 100 109 73 187 134 261 345 52 153 220 199 152 152 143
7 354 332 58 76 110 358 291 301 228 257 237 263 267 252 284 312 264 227 264 163 203 140 114 128 162 190 205 136 148 210 127 115 106 165 230 269 291 269 233 205 196 188 165 158
130 282 176 349 300 321 213 289 306 328 240 18 312 251 243 194 245 355 5 25 71 124 128 133 175 161 8 22 108 157 150 141 118 153 153 271 224 249 222 220 179 176 146 142 77
45 13 346 272 306 311 40 49 314 305 300 301 250 314 246 93 350 8 162 39 104 330 89 62 132 100 38 12 113 111 150 145 176 159 182 243 247 222 142 127 163 152 118 115 115
332 330 104 278 324 98 165 256 253 315 274 232 267 258 95 137 155 80 75 108 84 105 61 72 122 85 159 343 9 20 213 194 169 237 190 226 245 145 120 142 172 139 138 138 131